Torna al catalogo

COSMOS 2491 DEB

AttivoPO
NORAD 57568·DEBRIS·🇷🇺 Russia

Lanciato Dec 25, 2013 da Plesetsk Cosmodrome

Loading…

Prossimi Passaggi (prossime 24 ore)

TLE

ObsoletoSource: Space-Track

Epoca: Aug 20, 2026, 06:41 UTC

1 57568U 13076BF  26232.27893600 -.00000497  00000-0 -26540-2 0  9999
2 57568  82.4527  75.8108 0065886  16.4441 343.8769 12.66745257151409

Traccia COSMOS 2491 DEB in tempo reale con AllMySat

Download on the App Store